• In Netherlands
  • List of Countries
  • For 7 days
  • Water Temperature
  • Satellite Maps
  • Weather Map
  • Weather Widgets
  • user-avatar
    Login

    Hourly Weather Algiers

    Today, 28 May, Sunday

    Time Temperature Precipitation Wind Pressure Humidity
    00:00 +21°C° 0 mm 5 mps 748 mmHg 79%
    01:00 +21°C° 0 mm 5 mps 748 mmHg 78%
    02:00 +21°C° 0 mm 5 mps 748 mmHg 77%
    03:00 +21°C° 0 mm 5 mps 748 mmHg 75%
    04:00 +22°C° 0 mm 5 mps 748 mmHg 69%
    05:00 +25°C° 0 mm 5 mps 748 mmHg 63%
    06:00 +27°C° 0 mm 5 mps 748 mmHg 56%
    07:00 +29°C° 0 mm 5 mps 748 mmHg 48%
    08:00 +32°C° 0 mm 5 mps 748 mmHg 40%
    09:00 +35°C° 0 mm 5 mps 748 mmHg 32%
    10:00 +35°C° 0 mm 5 mps 748 mmHg 32%
    11:00 +36°C° 0 mm 6 mps 748 mmHg 32%
    12:00 +38°C° 0 mm 6 mps 748 mmHg 31%
    13:00 +36°C° 0 mm 6 mps 747 mmHg 33%
    14:00 +36°C° 0 mm 6 mps 747 mmHg 35%
    15:00 +35°C° 0 mm 6 mps 747 mmHg 37%
    16:00 +34°C° 0 mm 6 mps 747 mmHg 43%
    17:00 +32°C° 0 mm 6 mps 746 mmHg 49%
    18:00 +30°C° 0 mm 6 mps 746 mmHg 55%
    19:00 +28°C° 0 mm 5 mps 747 mmHg 62%
    20:00 +26°C° 0 mm 5 mps 747 mmHg 69%
    21:00 +23°C° 0 mm 5 mps 747 mmHg 76%
    22:00 +23°C° 0 mm 4 mps 747 mmHg 75%
    23:00 +23°C° 0 mm 4 mps 747 mmHg 73%

    Tomorrow, 29 May, Monday

    Time Temperature Precipitation Wind Pressure Humidity
    00:00 +22°C° 0 mm 4 mps 747 mmHg 72%
    01:00 +22°C° 0 mm 3 mps 747 mmHg 70%
    02:00 +22°C° 0 mm 3 mps 746 mmHg 69%
    03:00 +22°C° 0 mm 3 mps 746 mmHg 68%
    04:00 +24°C° 0 mm 3 mps 746 mmHg 68%
    05:00 +24°C° 0 mm 3 mps 747 mmHg 68%
    06:00 +25°C° 0 mm 2 mps 747 mmHg 68%
    07:00 +26°C° 0 mm 3 mps 747 mmHg 65%
    08:00 +27°C° 0 mm 4 mps 747 mmHg 62%
    09:00 +28°C° 0 mm 5 mps 747 mmHg 59%
    10:00 +29°C° 0 mm 5 mps 747 mmHg 58%
    11:00 +29°C° 0 mm 5 mps 747 mmHg 58%
    12:00 +30°C° 0 mm 5 mps 747 mmHg 57%
    13:00 +29°C° 0.1 mm 5 mps 747 mmHg 60%
    14:00 +29°C° 0.1 mm 4 mps 747 mmHg 63%
    15:00 +28°C° 0.1 mm 4 mps 747 mmHg 66%
    16:00 +27°C° 0 mm 3 mps 747 mmHg 70%
    17:00 +26°C° 0 mm 3 mps 747 mmHg 74%
    18:00 +25°C° 0 mm 3 mps 747 mmHg 78%
    19:00 +24°C° 0.1 mm 3 mps 747 mmHg 83%
    20:00 +22°C° 0.1 mm 3 mps 747 mmHg 88%
    21:00 +21°C° 0.1 mm 3 mps 748 mmHg 93%
    22:00 +21°C° 0.8 mm 3 mps 748 mmHg 93%
    23:00 +21°C° 0.8 mm 3 mps 748 mmHg 94%

    Day after tomorrow, 30 May, Tuesday

    Time Temperature Precipitation Wind Pressure Humidity
    00:00 +21°C° 0.8 mm 4 mps 748 mmHg 95%
    01:00 +21°C° 0.3 mm 4 mps 748 mmHg 95%
    02:00 +21°C° 0.3 mm 4 mps 748 mmHg 95%
    03:00 +21°C° 0.3 mm 4 mps 748 mmHg 95%
    04:00 +21°C° 0.4 mm 4 mps 748 mmHg 95%
    05:00 +21°C° 0.4 mm 3 mps 748 mmHg 94%
    06:00 +21°C° 0.4 mm 3 mps 748 mmHg 94%
    07:00 +21°C° 1.1 mm 3 mps 749 mmHg 93%
    08:00 +21°C° 1.1 mm 3 mps 749 mmHg 91%
    09:00 +22°C° 1.1 mm 3 mps 750 mmHg 89%
    10:00 +23°C° 1.1 mm 2 mps 750 mmHg 86%
    11:00 +24°C° 1.1 mm 2 mps 750 mmHg 83%
    12:00 +24°C° 1.1 mm 1 mps 750 mmHg 80%
    13:00 +25°C° 0.3 mm 1 mps 750 mmHg 76%
    14:00 +25°C° 0.3 mm 1 mps 749 mmHg 72%
    15:00 +26°C° 0.3 mm 1 mps 749 mmHg 69%
    16:00 +26°C° 0.2 mm 2 mps 749 mmHg 70%
    17:00 +25°C° 0.2 mm 2 mps 749 mmHg 71%
    18:00 +25°C° 0.2 mm 2 mps 749 mmHg 73%
    19:00 +24°C° 0.1 mm 2 mps 749 mmHg 77%
    20:00 +23°C° 0.1 mm 2 mps 749 mmHg 81%
    21:00 +21°C° 0.1 mm 3 mps 750 mmHg 85%
    22:00 +20°C° 0.2 mm 3 mps 749 mmHg 85%
    23:00 +20°C° 0.2 mm 3 mps 749 mmHg 85%

    31 May, Wednesday

    Time Temperature Precipitation Wind Pressure Humidity
    00:00 +20°C° 0.2 mm 3 mps 749 mmHg 84%
    01:00 +19°C° 0 mm 2 mps 749 mmHg 85%
    02:00 +19°C° 0 mm 2 mps 749 mmHg 85%
    03:00 +19°C° 0 mm 2 mps 749 mmHg 85%
    04:00 +20°C° 0 mm 2 mps 749 mmHg 80%
    05:00 +21°C° 0 mm 2 mps 749 mmHg 75%
    06:00 +23°C° 0 mm 2 mps 750 mmHg 70%
    07:00 +25°C° 0 mm 2 mps 750 mmHg 62%
    08:00 +27°C° 0 mm 2 mps 750 mmHg 53%
    09:00 +29°C° 0 mm 2 mps 750 mmHg 44%
    10:00 +30°C° 0 mm 2 mps 750 mmHg 44%
    11:00 +30°C° 0 mm 3 mps 750 mmHg 43%
    12:00 +31°C° 0 mm 3 mps 750 mmHg 43%
    13:00 +30°C° 0 mm 3 mps 750 mmHg 47%
    14:00 +30°C° 0 mm 3 mps 750 mmHg 51%
    15:00 +29°C° 0 mm 3 mps 749 mmHg 55%
    16:00 +28°C° 0 mm 3 mps 749 mmHg 60%
    17:00 +27°C° 0 mm 2 mps 749 mmHg 66%
    18:00 +26°C° 0 mm 2 mps 749 mmHg 71%
    19:00 +25°C° 0.3 mm 2 mps 750 mmHg 75%
    20:00 +24°C° 0.3 mm 2 mps 750 mmHg 79%
    21:00 +23°C° 0.3 mm 1 mps 750 mmHg 82%
    22:00 +22°C° 0.2 mm 1 mps 750 mmHg 84%
    23:00 +22°C° 0.2 mm 1 mps 750 mmHg 86%

    1 June, Thursday

    Time Temperature Precipitation Wind Pressure Humidity
    00:00 +21°C° 0.2 mm 1 mps 750 mmHg 88%
    01:00 +21°C° 0.3 mm 1 mps 750 mmHg 87%
    02:00 +21°C° 0.3 mm 1 mps 749 mmHg 87%
    03:00 +20°C° 0.3 mm 1 mps 749 mmHg 86%
    04:00 +21°C° 0 mm 2 mps 749 mmHg 80%
    05:00 +23°C° 0 mm 2 mps 750 mmHg 75%
    06:00 +25°C° 0 mm 2 mps 750 mmHg 69%
    07:00 +26°C° 0 mm 2 mps 750 mmHg 61%
    08:00 +28°C° 0 mm 2 mps 750 mmHg 52%
    09:00 +30°C° 0 mm 2 mps 750 mmHg 44%
    10:00 +31°C° 0 mm 3 mps 750 mmHg 43%
    11:00 +33°C° 0 mm 3 mps 750 mmHg 41%
    12:00 +34°C° 0 mm 4 mps 750 mmHg 40%
    13:00 +33°C° 0 mm 4 mps 749 mmHg 42%
    14:00 +33°C° 0 mm 4 mps 749 mmHg 45%
    15:00 +33°C° 0 mm 4 mps 749 mmHg 47%
    16:00 +32°C° 0 mm 4 mps 749 mmHg 52%
    17:00 +29°C° 0 mm 4 mps 749 mmHg 58%
    18:00 +28°C° 0 mm 4 mps 748 mmHg 63%
    19:00 +26°C° 0 mm 4 mps 749 mmHg 70%
    20:00 +25°C° 0 mm 3 mps 749 mmHg 77%
    21:00 +22°C° 0 mm 3 mps 749 mmHg 84%
    22:00 +24°C° 0.4 mm 3 mps 749 mmHg 80%
    23:00 +24°C° 0.4 mm 3 mps 749 mmHg 75%

    2 June, Friday

    Time Temperature Precipitation Wind Pressure Humidity
    00:00 +25°C° 0.4 mm 3 mps 749 mmHg 71%
    01:00 +24°C° 0 mm 3 mps 749 mmHg 71%
    02:00 +22°C° 0 mm 3 mps 748 mmHg 71%
    03:00 +22°C° 0 mm 4 mps 748 mmHg 72%
    04:00 +23°C° 0 mm 4 mps 748 mmHg 65%
    05:00 +25°C° 0 mm 4 mps 748 mmHg 59%
    06:00 +27°C° 0 mm 4 mps 749 mmHg 53%
    07:00 +29°C° 0 mm 4 mps 749 mmHg 46%
    08:00 +32°C° 0 mm 5 mps 749 mmHg 39%
    09:00 +34°C° 0 mm 5 mps 749 mmHg 32%
    10:00 +35°C° 0 mm 5 mps 749 mmHg 32%
    11:00 +36°C° 0 mm 6 mps 749 mmHg 32%
    12:00 +38°C° 0 mm 6 mps 748 mmHg 32%
    13:00 +36°C° 0 mm 6 mps 748 mmHg 34%
    14:00 +36°C° 0 mm 6 mps 748 mmHg 36%
    15:00 +36°C° 0 mm 7 mps 747 mmHg 38%
    16:00 +34°C° 0 mm 6 mps 747 mmHg 44%
    17:00 +33°C° 0 mm 6 mps 747 mmHg 50%
    18:00 +30°C° 0 mm 6 mps 748 mmHg 55%
    19:00 +29°C° 0.2 mm 5 mps 748 mmHg 61%
    20:00 +27°C° 0.2 mm 5 mps 748 mmHg 66%
    21:00 +26°C° 0.2 mm 4 mps 748 mmHg 71%
    22:00 +26°C° 0 mm 4 mps 748 mmHg 70%
    23:00 +26°C° 0 mm 4 mps 748 mmHg 69%
    Show more